Regional Weather Roundup
Issued by NWS

Home | Current Version | Previous Version | Text Only | Print | Product List | Glossary Off
Versions: 1 2 3 4 5 6 7 8 9 10 11 12 13 14 15 16 17 18 19 20 21 22 23 24 25 26 27

000
ASUS45 KCYS 230410
RWRWY

WYOMING REGIONAL WEATHER ROUNDUP
NATIONAL WEATHER SERVICE CHEYENNE WY
1000 PM MDT SAT APR 22 2017

NOTE:  "FAIR" INDICATES FEW OR NO CLOUDS BELOW 12,000 FEET
WITH NO SIGNIFICANT WEATHER AND/OR OBSTRUCTIONS TO VISIBILITY.

WYZ001-230500-
YELLOWSTONE NATIONAL PARK

CITY           SKY/WX    TMP DP  RH WIND       PRES   REMARKS
LK YELLOWSTONE   N/A     30  26  85 W5        30.11S WCI  25
W YELLOWSTONE  NOT AVBL

$$
WYZ002>013-054>058-071-098>099-230500-
NORTHERN WYOMING

CITY           SKY/WX    TMP DP  RH WIND       PRES   REMARKS
JACKSON        FAIR      41  28  60 CALM      30.07S
CODY           FAIR      46  37  71 S3        30.00S
GREYBULL       FAIR      50  35  56 SE5       29.96S
WORLAND        FAIR      48  41  76 CALM      29.96R
SHERIDAN       FAIR      44  38  79 CALM      29.97R
BUFFALO        FAIR      43  35  73 W8        29.99S
GILLETTE       FAIR      49  35  58 S15       29.99F
HULETT         FAIR      50  34  53 S8        30.03F
NEWCASTLE      FAIR      46  30  53 SE12      30.07F

$$
WYZ014>020-022>026-101>103-230500-
CENTRAL WYOMING

CITY           SKY/WX    TMP DP  RH WIND       PRES   REMARKS
BIG PINEY      FAIR      35  22  58 NW5       30.11S WCI  31
PINEDALE       FAIR      37  25  60 CALM      30.13S
DUBOIS         FAIR      41  21  45 NW9       30.06S
LANDER         FAIR      50  30  46 NW9       30.00R
RIVERTON       FAIR      51  27  39 SW5       30.01R
CASPER         FAIR      42  33  70 SW3       30.04S
DOUGLAS        FAIR      47  29  49 S13       30.08S

$$
WYZ021-027>030-104>119-230500-
SOUTHERN WYOMING

CITY           SKY/WX    TMP DP  RH WIND       PRES   REMARKS
EVANSTON       FAIR      43  28  55 SW6       30.11R
KEMMERER         N/A     45  23  42 CALM      30.12S
FORT BRIDGER   FAIR      47  27  44 CALM      30.14R
ROCK SPRINGS   FAIR      45  23  42 S9        30.10R
DIXON            N/A     37  28  69 E6        30.16R WCI  33
RAWLINS        FAIR      42  19  39 SW8       30.12R
SARATOGA       FAIR      36  21  55 SW13      30.14R WCI  27
LARAMIE        FAIR      37  28  70 SE20      30.15S WCI  27
CHEYENNE       FAIR      41  30  65 S13       30.18S
TORRINGTON     FAIR      44  32  62 S10       30.13R
PINE BLUFFS    FAIR      37  32  81 S8        30.19S WCI  31

$$




USA.gov is the U.S. government's official web portal to all federal, state and local government web resources and services.